START_TIME,STEP,MOV.,EG07,t_acc.,EG08,t_acc.,EG09,t_acc.,EB05,t_acc.,EBP05,t_acc.
1979-07-17 12:00:22.830 ,0,0,5.,1.2,0.,1.2,0.,1.2,,0.0,,0.0
1979-07-17 12:00:24.030 ,0,0,1.,1.2,0.,1.2,0.,1.2,,0.0,,0.0
1979-07-17 12:00:25.230 ,0,0,0.,1.2,0.,1.2,0.,1.2,,0.0,,0.0
1979-07-17 12:00:26.430 ,0,0,1.,1.2,0.,1.2,0.,1.2,,0.0,,0.0
1979-07-17 12:00:27.630 ,0,0,2.,1.2,0.,1.2,0.,1.2,,0.0,,0.0
1979-07-17 12:00:28.830 ,0,0,3.,1.2,0.,1.2,0.,1.2,,0.0,,0.0
1979-07-17 12:00:30.030 ,0,0,5.,1.2,1.,1.2,0.,1.2,,0.0,,0.0
1979-07-17 12:00:31.230 ,0,0,1.,1.2,0.,1.2,0.,1.2,,0.0,,0.0
1979-07-17 12:00:32.430 ,0,0,4.,1.2,1.,1.2,0.,1.2,,0.0,,0.0
1979-07-17 12:00:33.630 ,0,0,1.,1.2,0.,1.2,0.,1.2,,0.0,,0.0
1979-07-17 12:00:34.830 ,0,0,6.,1.2,1.,1.2,0.,1.2,,0.0,,0.0
1979-07-17 12:00:36.030 ,0,0,4.,1.2,0.,1.2,0.,1.2,,0.0,,0.0
1979-07-17 12:00:37.230 ,0,0,4.,1.2,0.,1.2,0.,1.2,,0.0,,0.0
1979-07-17 12:00:38.430 ,0,0,5.,1.2,0.,1.2,0.,1.2,,0.0,,0.0
1979-07-17 12:00:39.630 ,0,0,7.,1.2,0.,1.2,0.,1.2,,0.0,,0.0
1979-07-17 12:00:40.830 ,0,0,3.,1.2,0.,1.2,0.,1.2,,0.0,,0.0
1979-07-17 12:00:42.030 ,0,0,7.,1.2,0.,1.2,0.,1.2,,0.0,,0.0
1979-07-17 12:00:43.230 ,0,0,2.,1.2,0.,1.2,0.,1.2,,0.0,,0.0
1979-07-17 12:00:44.430 ,0,0,5.,1.2,0.,1.2,0.,1.2,,0.0,,0.0
1979-07-17 12:00:45.630 ,0,0,5.,1.2,0.,1.2,0.,1.2,,0.0,,0.0
1979-07-17 12:00:46.830 ,1,0,4.,1.2,0.,1.2,0.,1.2,,0.0,,0.0
1979-07-17 12:00:48.030 ,1,0,3.,1.2,0.,1.2,0.,1.2,,0.0,,0.0
1979-07-17 12:00:49.230 ,1,0,2.,1.2,0.,1.2,0.,1.2,,0.0,,0.0
1979-07-17 12:00:50.430 ,1,0,1.,1.2,0.,1.2,0.,1.2,,0.0,,0.0
1979-07-17 12:00:51.630 ,1,0,3.,1.2,0.,1.2,0.,1.2,,0.0,,0.0
1979-07-17 12:00:52.830 ,1,0,1.,1.2,0.,1.2,0.,1.2,,0.0,,0.0
1979-07-17 12:00:54.030 ,1,0,3.,1.2,0.,1.2,0.,1.2,,0.0,,0.0
1979-07-17 12:00:55.230 ,1,0,5.,1.2,1.,1.2,0.,1.2,,0.0,,0.0
1979-07-17 12:00:56.430 ,1,0,4.,1.2,0.,1.2,0.,1.2,,0.0,,0.0
1979-07-17 12:00:57.630 ,1,0,1.,1.2,0.,1.2,0.,1.2,,0.0,,0.0
1979-07-17 12:00:58.830 ,1,0,4.,1.2,1.,1.2,0.,1.2,,0.0,,0.0
1979-07-17 12:01:00.030 ,1,0,5.,1.2,0.,1.2,0.,1.2,,0.0,,0.0
1979-07-17 12:01:01.230 ,1,0,3.,1.2,0.,1.2,0.,1.2,,0.0,,0.0
1979-07-17 12:01:02.430 ,1,0,5.,1.2,0.,1.2,0.,1.2,,0.0,,0.0
1979-07-17 12:01:03.630 ,1,0,2.,1.2,0.,1.2,0.,1.2,,0.0,,0.0
1979-07-17 12:01:04.830 ,1,0,4.,1.2,1.,1.2,0.,1.2,,0.0,,0.0
1979-07-17 12:01:06.030 ,1,0,4.,1.2,0.,1.2,0.,1.2,,0.0,,0.0
1979-07-17 12:01:07.230 ,1,0,3.,1.2,0.,1.2,0.,1.2,,0.0,,0.0
1979-07-17 12:01:08.430 ,1,0,3.,1.2,0.,1.2,0.,1.2,,0.0,,0.0
1979-07-17 12:01:09.630 ,1,0,3.,1.2,0.,1.2,0.,1.2,,0.0,,0.0
1979-07-17 12:01:10.830 ,1,0,4.,1.2,0.,1.2,0.,1.2,,0.0,,0.0
1979-07-17 12:01:12.030 ,1,0,3.,1.2,0.,1.2,0.,1.2,,0.0,,0.0
1979-07-17 12:01:13.230 ,1,0,5.,1.2,1.,1.2,0.,1.2,,0.0,,0.0
1979-07-17 12:01:14.430 ,1,0,3.,1.2,1.,1.2,0.,1.2,,0.0,,0.0
1979-07-17 12:01:15.630 ,1,0,6.,1.2,0.,1.2,0.,1.2,,0.0,,0.0
1979-07-17 12:01:16.830 ,1,0,2.,1.2,0.,1.2,0.,1.2,,0.0,,0.0
1979-07-17 12:01:18.030 ,1,0,1.,1.2,0.,1.2,0.,1.2,,0.0,,0.0
1979-07-17 12:01:19.230 ,1,0,2.,1.2,0.,1.2,0.,1.2,,0.0,,0.0
1979-07-17 12:01:20.430 ,1,0,0.,1.2,0.,1.2,0.,1.2,,0.0,,0.0
1979-07-17 12:01:21.630 ,1,0,2.,1.2,0.,1.2,0.,1.2,,0.0,,0.0
1979-07-17 12:01:22.830 ,1,0,3.,1.2,0.,1.2,0.,1.2,,0.0,,0.0
1979-07-17 12:01:24.030 ,1,0,4.,1.2,0.,1.2,0.,1.2,,0.0,,0.0
1979-07-17 12:01:25.230 ,1,0,3.,1.2,1.,1.2,0.,1.2,,0.0,,0.0
1979-07-17 12:01:26.430 ,1,0,2.,1.2,0.,1.2,0.,1.2,,0.0,,0.0
1979-07-17 12:01:27.630 ,1,0,4.,1.2,1.,1.2,0.,1.2,,0.0,,0.0
1979-07-17 12:01:28.830 ,1,0,0.,1.2,0.,1.2,0.,1.2,,0.0,,0.0
1979-07-17 12:01:30.030 ,1,0,5.,1.2,0.,1.2,0.,1.2,,0.0,,0.0
1979-07-17 12:01:31.230 ,1,0,2.,1.2,0.,1.2,0.,1.2,,0.0,,0.0
1979-07-17 12:01:32.430 ,1,0,6.,1.2,0.,1.2,0.,1.2,,0.0,,0.0
1979-07-17 12:01:33.630 ,1,0,2.,1.2,0.,1.2,0.,1.2,,0.0,,0.0
1979-07-17 12:01:34.830 ,2,0,4.,1.2,0.,1.2,0.,1.2,,0.0,,0.0
1979-07-17 12:01:36.030 ,2,0,3.,1.2,0.,1.2,0.,1.2,,0.0,,0.0
1979-07-17 12:01:37.230 ,2,0,1.,1.2,0.,1.2,0.,1.2,,0.0,,0.0
1979-07-17 12:01:38.430 ,2,0,1.,1.2,0.,1.2,0.,1.2,,0.0,,0.0
1979-07-17 12:01:39.630 ,2,0,4.,1.2,0.,1.2,0.,1.2,,0.0,,0.0
1979-07-17 12:01:40.830 ,2,0,3.,1.2,0.,1.2,0.,1.2,,0.0,,0.0
1979-07-17 12:01:42.030 ,2,0,3.,1.2,0.,1.2,0.,1.2,,0.0,,0.0
1979-07-17 12:01:43.230 ,2,0,1.,1.2,0.,1.2,0.,1.2,,0.0,,0.0
1979-07-17 12:01:44.430 ,2,0,1.,1.2,0.,1.2,0.,1.2,,0.0,,0.0
1979-07-17 12:01:45.630 ,2,0,2.,1.2,0.,1.2,0.,1.2,,0.0,,0.0
1979-07-17 12:01:46.830 ,2,0,1.,1.2,0.,1.2,0.,1.2,,0.0,,0.0
1979-07-17 12:01:48.030 ,2,0,3.,1.2,1.,1.2,0.,1.2,,0.0,,0.0
1979-07-17 12:01:49.230 ,2,0,4.,1.2,0.,1.2,0.,1.2,,0.0,,0.0
1979-07-17 12:01:50.430 ,2,0,2.,1.2,0.,1.2,0.,1.2,,0.0,,0.0
1979-07-17 12:01:51.630 ,2,0,3.,1.2,0.,1.2,0.,1.2,,0.0,,0.0
1979-07-17 12:01:52.830 ,2,0,4.,1.2,1.,1.2,0.,1.2,,0.0,,0.0
1979-07-17 12:01:54.030 ,2,0,3.,1.2,0.,1.2,0.,1.2,,0.0,,0.0
1979-07-17 12:01:55.230 ,2,0,3.,1.2,0.,1.2,0.,1.2,,0.0,,0.0
1979-07-17 12:01:56.430 ,2,0,3.,1.2,0.,1.2,0.,1.2,,0.0,,0.0
1979-07-17 12:01:57.630 ,2,0,0.,1.2,0.,1.2,0.,1.2,,0.0,,0.0
1979-07-17 12:01:58.830 ,2,0,2.,1.2,0.,1.2,0.,1.2,,0.0,,0.0
1979-07-17 12:02:00.030 ,2,0,3.,1.2,0.,1.2,0.,1.2,,0.0,,0.0
1979-07-17 12:02:01.230 ,2,0,4.,1.2,0.,1.2,0.,1.2,,0.0,,0.0
1979-07-17 12:02:02.430 ,2,0,1.,1.2,1.,1.2,0.,1.2,,0.0,,0.0
1979-07-17 12:02:03.630 ,2,0,5.,1.2,1.,1.2,1.,1.2,,0.0,,0.0
1979-07-17 12:02:04.830 ,2,0,2.,1.2,0.,1.2,0.,1.2,,0.0,,0.0
1979-07-17 12:02:06.030 ,2,0,1.,1.2,0.,1.2,0.,1.2,,0.0,,0.0
1979-07-17 12:02:07.230 ,2,0,0.,1.2,0.,1.2,0.,1.2,,0.0,,0.0
1979-07-17 12:02:08.430 ,2,0,4.,1.2,0.,1.2,0.,1.2,,0.0,,0.0
1979-07-17 12:02:09.630 ,2,0,1.,1.2,0.,1.2,0.,1.2,,0.0,,0.0
1979-07-17 12:02:10.830 ,2,0,6.,1.2,0.,1.2,0.,1.2,,0.0,,0.0
1979-07-17 12:02:12.030 ,2,0,4.,1.2,0.,1.2,0.,1.2,,0.0,,0.0
1979-07-17 12:02:13.230 ,2,0,4.,1.2,0.,1.2,0.,1.2,,0.0,,0.0
1979-07-17 12:02:14.430 ,2,0,2.,1.2,1.,1.2,0.,1.2,,0.0,,0.0
1979-07-17 12:02:15.630 ,2,0,2.,1.2,0.,1.2,0.,1.2,,0.0,,0.0
1979-07-17 12:02:16.830 ,2,0,1.,1.2,0.,1.2,0.,1.2,,0.0,,0.0
1979-07-17 12:02:18.030 ,2,0,1.,1.2,0.,1.2,0.,1.2,,0.0,,0.0
1979-07-17 12:02:19.230 ,2,0,1.,1.2,0.,1.2,0.,1.2,,0.0,,0.0
1979-07-17 12:02:20.430 ,2,0,1.,1.2,0.,1.2,0.,1.2,,0.0,,0.0
1979-07-17 12:02:21.630 ,2,0,2.,1.2,0.,1.2,0.,1.2,,0.0,,0.0
1979-07-17 12:02:22.830 ,3,0,4.,1.2,0.,1.2,0.,1.2,,0.0,,0.0
1979-07-17 12:02:24.030 ,3,0,4.,1.2,0.,1.2,0.,1.2,,0.0,,0.0
1979-07-17 12:02:25.230 ,3,0,6.,1.2,0.,1.2,0.,1.2,,0.0,,0.0
1979-07-17 12:02:26.430 ,3,0,2.,1.2,0.,1.2,0.,1.2,,0.0,,0.0
1979-07-17 12:02:27.630 ,3,0,4.,1.2,0.,1.2,0.,1.2,,0.0,,0.0
1979-07-17 12:02:28.830 ,3,0,0.,1.2,0.,1.2,0.,1.2,,0.0,,0.0
1979-07-17 12:02:30.030 ,3,0,2.,1.2,0.,1.2,0.,1.2,,0.0,,0.0
1979-07-17 12:02:31.230 ,3,0,3.,1.2,0.,1.2,0.,1.2,,0.0,,0.0
1979-07-17 12:02:32.430 ,3,0,5.,1.2,0.,1.2,0.,1.2,,0.0,,0.0
1979-07-17 12:02:33.630 ,3,0,6.,1.2,0.,1.2,0.,1.2,,0.0,,0.0
1979-07-17 12:02:34.830 ,3,0,7.,1.2,0.,1.2,0.,1.2,,0.0,,0.0
1979-07-17 12:02:36.030 ,3,0,1.,1.2,1.,1.2,0.,1.2,,0.0,,0.0
1979-07-17 12:02:37.230 ,3,0,3.,1.2,0.,1.2,0.,1.2,,0.0,,0.0
1979-07-17 12:02:38.430 ,3,0,5.,1.2,0.,1.2,0.,1.2,,0.0,,0.0
1979-07-17 12:02:39.630 ,3,0,6.,1.2,1.,1.2,0.,1.2,,0.0,,0.0
1979-07-17 12:02:40.830 ,3,0,2.,1.2,1.,1.2,0.,1.2,,0.0,,0.0
1979-07-17 12:02:42.030 ,3,0,1.,1.2,0.,1.2,0.,1.2,,0.0,,0.0
1979-07-17 12:02:43.230 ,3,0,6.,1.2,0.,1.2,0.,1.2,,0.0,,0.0
1979-07-17 12:02:44.430 ,3,0,2.,1.2,0.,1.2,0.,1.2,,0.0,,0.0
1979-07-17 12:02:45.630 ,3,0,4.,1.2,0.,1.2,0.,1.2,,0.0,,0.0
1979-07-17 12:02:46.830 ,3,0,2.,1.2,0.,1.2,0.,1.2,,0.0,,0.0
1979-07-17 12:02:48.030 ,3,0,6.,1.2,1.,1.2,1.,1.2,,0.0,,0.0
1979-07-17 12:02:49.230 ,3,0,4.,1.2,1.,1.2,0.,1.2,,0.0,,0.0
1979-07-17 12:02:50.430 ,3,0,2.,1.2,0.,1.2,0.,1.2,,0.0,,0.0
1979-07-17 12:02:51.630 ,3,0,1.,1.2,0.,1.2,0.,1.2,,0.0,,0.0
1979-07-17 12:02:52.830 ,3,0,2.,1.2,0.,1.2,0.,1.2,,0.0,,0.0
1979-07-17 12:02:54.030 ,3,0,0.,1.2,0.,1.2,0.,1.2,,0.0,,0.0
1979-07-17 12:02:55.230 ,3,0,3.,1.2,0.,1.2,0.,1.2,,0.0,,0.0
1979-07-17 12:02:56.430 ,3,0,2.,1.2,0.,1.2,0.,1.2,,0.0,,0.0
1979-07-17 12:02:57.630 ,3,0,3.,1.2,1.,1.2,0.,1.2,,0.0,,0.0
1979-07-17 12:02:58.830 ,3,0,5.,1.2,0.,1.2,0.,1.2,,0.0,,0.0
1979-07-17 12:03:00.030 ,3,0,3.,1.2,0.,1.2,0.,1.2,,0.0,,0.0
1979-07-17 12:03:01.230 ,3,0,3.,1.2,0.,1.2,0.,1.2,,0.0,,0.0
1979-07-17 12:03:02.430 ,3,0,4.,1.2,1.,1.2,0.,1.2,,0.0,,0.0
1979-07-17 12:03:03.630 ,3,0,8.,1.2,1.,1.2,0.,1.2,,0.0,,0.0
1979-07-17 12:03:04.830 ,3,0,3.,1.2,0.,1.2,0.,1.2,,0.0,,0.0
1979-07-17 12:03:06.030 ,3,0,3.,1.2,0.,1.2,0.,1.2,,0.0,,0.0
1979-07-17 12:03:07.230 ,3,0,2.,1.2,0.,1.2,0.,1.2,,0.0,,0.0
1979-07-17 12:03:08.430 ,3,0,2.,1.2,0.,1.2,0.,1.2,,0.0,,0.0
1979-07-17 12:03:09.630 ,3,0,4.,1.2,0.,1.2,0.,1.2,,0.0,,0.0
1979-07-17 12:03:10.830 ,4,0,6.,1.2,1.,1.2,0.,1.2,,0.0,,0.0
1979-07-17 12:03:12.030 ,4,0,6.,1.2,0.,1.2,0.,1.2,,0.0,,0.0
1979-07-17 12:03:13.230 ,4,0,3.,1.2,0.,1.2,0.,1.2,,0.0,,0.0
1979-07-17 12:03:14.430 ,4,0,3.,1.2,0.,1.2,0.,1.2,,0.0,,0.0
1979-07-17 12:03:15.630 ,4,0,1.,1.2,0.,1.2,0.,1.2,,0.0,,0.0
1979-07-17 12:03:16.830 ,4,0,1.,1.2,0.,1.2,0.,1.2,,0.0,,0.0
1979-07-17 12:03:18.030 ,4,0,2.,1.2,0.,1.2,0.,1.2,,0.0,,0.0
1979-07-17 12:03:19.230 ,4,0,4.,1.2,0.,1.2,0.,1.2,,0.0,,0.0
1979-07-17 12:03:20.430 ,4,0,5.,1.2,0.,1.2,0.,1.2,,0.0,,0.0
1979-07-17 12:03:21.630 ,4,0,1.,1.2,0.,1.2,0.,1.2,,0.0,,0.0
1979-07-17 12:03:22.830 ,4,0,4.,1.2,0.,1.2,0.,1.2,,0.0,,0.0
1979-07-17 12:03:24.030 ,4,0,7.,1.2,0.,1.2,0.,1.2,,0.0,,0.0
1979-07-17 12:03:25.230 ,4,0,5.,1.2,0.,1.2,0.,1.2,,0.0,,0.0
1979-07-17 12:03:26.430 ,4,0,3.,1.2,0.,1.2,0.,1.2,,0.0,,0.0
1979-07-17 12:03:27.630 ,4,0,3.,1.2,0.,1.2,0.,1.2,,0.0,,0.0
1979-07-17 12:03:28.830 ,4,0,3.,1.2,0.,1.2,0.,1.2,,0.0,,0.0
1979-07-17 12:03:30.030 ,4,0,3.,1.2,0.,1.2,0.,1.2,,0.0,,0.0
1979-07-17 12:03:31.230 ,4,0,5.,1.2,1.,1.2,1.,1.2,,0.0,,0.0
1979-07-17 12:03:32.430 ,4,0,6.,1.2,0.,1.2,0.,1.2,,0.0,,0.0
1979-07-17 12:03:33.630 ,4,0,4.,1.2,1.,1.2,0.,1.2,,0.0,,0.0
1979-07-17 12:03:34.830 ,4,0,5.,1.2,0.,1.2,0.,1.2,,0.0,,0.0
1979-07-17 12:03:36.030 ,4,0,3.,1.2,0.,1.2,0.,1.2,,0.0,,0.0
1979-07-17 12:03:37.230 ,4,0,5.,1.2,0.,1.2,0.,1.2,,0.0,,0.0
1979-07-17 12:03:38.430 ,4,0,2.,1.2,1.,1.2,0.,1.2,,0.0,,0.0
1979-07-17 12:03:39.630 ,4,0,4.,1.2,0.,1.2,0.,1.2,,0.0,,0.0
1979-07-17 12:03:40.830 ,4,0,4.,1.2,0.,1.2,0.,1.2,,0.0,,0.0
1979-07-17 12:03:42.030 ,4,0,4.,1.2,0.,1.2,0.,1.2,,0.0,,0.0
1979-07-17 12:03:43.230 ,4,0,7.,1.2,0.,1.2,0.,1.2,,0.0,,0.0
1979-07-17 12:03:44.430 ,4,0,5.,1.2,0.,1.2,0.,1.2,,0.0,,0.0
1979-07-17 12:03:45.630 ,4,0,7.,1.2,1.,1.2,0.,1.2,,0.0,,0.0
1979-07-17 12:03:46.830 ,4,0,4.,1.2,0.,1.2,0.,1.2,,0.0,,0.0
1979-07-17 12:03:48.030 ,4,0,5.,1.2,0.,1.2,0.,1.2,,0.0,,0.0
1979-07-17 12:03:49.230 ,4,0,5.,1.2,1.,1.2,0.,1.2,,0.0,,0.0
1979-07-17 12:03:50.430 ,4,0,5.,1.2,0.,1.2,0.,1.2,,0.0,,0.0
1979-07-17 12:03:51.630 ,4,0,3.,1.2,0.,1.2,0.,1.2,,0.0,,0.0
1979-07-17 12:03:52.830 ,4,0,3.,1.2,0.,1.2,0.,1.2,,0.0,,0.0
1979-07-17 12:03:54.030 ,4,0,5.,1.2,0.,1.2,0.,1.2,,0.0,,0.0
1979-07-17 12:03:55.230 ,4,0,8.,1.2,0.,1.2,0.,1.2,,0.0,,0.0
1979-07-17 12:03:56.430 ,4,0,4.,1.2,1.,1.2,0.,1.2,,0.0,,0.0
1979-07-17 12:03:57.630 ,4,0,4.,1.2,0.,1.2,0.,1.2,,0.0,,0.0
1979-07-17 12:03:58.830 ,5,0,9.,1.2,1.,1.2,0.,1.2,,0.0,,0.0
1979-07-17 12:04:00.030 ,5,0,5.,1.2,0.,1.2,0.,1.2,,0.0,,0.0
1979-07-17 12:04:01.230 ,5,0,5.,1.2,1.,1.2,0.,1.2,,0.0,,0.0
1979-07-17 12:04:02.430 ,5,0,2.,1.2,0.,1.2,0.,1.2,,0.0,,0.0
1979-07-17 12:04:03.630 ,5,0,4.,1.2,0.,1.2,0.,1.2,,0.0,,0.0
1979-07-17 12:04:04.830 ,5,0,2.,1.2,0.,1.2,0.,1.2,,0.0,,0.0
1979-07-17 12:04:06.030 ,5,0,3.,1.2,0.,1.2,0.,1.2,,0.0,,0.0
1979-07-17 12:04:07.230 ,5,0,3.,1.2,0.,1.2,0.,1.2,,0.0,,0.0
1979-07-17 12:04:08.430 ,5,0,4.,1.2,0.,1.2,0.,1.2,,0.0,,0.0
1979-07-17 12:04:09.630 ,5,0,2.,1.2,0.,1.2,0.,1.2,,0.0,,0.0
1979-07-17 12:04:10.830 ,5,0,3.,1.2,0.,1.2,0.,1.2,,0.0,,0.0
1979-07-17 12:04:12.030 ,5,0,3.,1.2,0.,1.2,0.,1.2,,0.0,,0.0
1979-07-17 12:04:13.230 ,5,0,5.,1.2,0.,1.2,0.,1.2,,0.0,,0.0
1979-07-17 12:04:14.430 ,5,0,3.,1.2,0.,1.2,0.,1.2,,0.0,,0.0
1979-07-17 12:04:15.630 ,5,0,0.,1.2,0.,1.2,0.,1.2,,0.0,,0.0
1979-07-17 12:04:16.830 ,5,0,0.,1.2,0.,1.2,0.,1.2,,0.0,,0.0
1979-07-17 12:04:18.030 ,5,0,4.,1.2,0.,1.2,0.,1.2,,0.0,,0.0
1979-07-17 12:04:19.230 ,5,0,3.,1.2,1.,1.2,1.,1.2,,0.0,,0.0
1979-07-17 12:04:20.430 ,5,0,1.,1.2,0.,1.2,0.,1.2,,0.0,,0.0
1979-07-17 12:04:21.630 ,5,0,3.,1.2,0.,1.2,0.,1.2,,0.0,,0.0
1979-07-17 12:04:22.830 ,5,0,4.,1.2,0.,1.2,0.,1.2,,0.0,,0.0
1979-07-17 12:04:24.030 ,5,0,3.,1.2,0.,1.2,0.,1.2,,0.0,,0.0
1979-07-17 12:04:25.230 ,5,0,2.,1.2,0.,1.2,0.,1.2,,0.0,,0.0
1979-07-17 12:04:26.430 ,5,0,2.,1.2,0.,1.2,0.,1.2,,0.0,,0.0
1979-07-17 12:04:27.630 ,5,0,3.,1.2,1.,1.2,0.,1.2,,0.0,,0.0
1979-07-17 12:04:28.830 ,5,0,1.,1.2,0.,1.2,0.,1.2,,0.0,,0.0
1979-07-17 12:04:30.030 ,5,0,4.,1.2,1.,1.2,0.,1.2,,0.0,,0.0
1979-07-17 12:04:31.230 ,5,0,3.,1.2,0.,1.2,0.,1.2,,0.0,,0.0
1979-07-17 12:04:32.430 ,5,0,2.,1.2,0.,1.2,0.,1.2,,0.0,,0.0
1979-07-17 12:04:33.630 ,5,0,2.,1.2,0.,1.2,0.,1.2,,0.0,,0.0
1979-07-17 12:04:34.830 ,5,0,2.,1.2,0.,1.2,0.,1.2,,0.0,,0.0
1979-07-17 12:04:36.030 ,5,0,2.,1.2,0.,1.2,0.,1.2,,0.0,,0.0
1979-07-17 12:04:37.230 ,5,0,2.,1.2,0.,1.2,0.,1.2,,0.0,,0.0
1979-07-17 12:04:38.430 ,5,0,1.,1.2,0.,1.2,0.,1.2,,0.0,,0.0
1979-07-17 12:04:39.630 ,5,0,2.,1.2,0.,1.2,0.,1.2,,0.0,,0.0
1979-07-17 12:04:40.830 ,5,0,3.,1.2,0.,1.2,0.,1.2,,0.0,,0.0
1979-07-17 12:04:42.030 ,5,0,0.,1.2,0.,1.2,0.,1.2,,0.0,,0.0
1979-07-17 12:04:43.230 ,5,0,2.,1.2,0.,1.2,0.,1.2,,0.0,,0.0
1979-07-17 12:04:44.430 ,5,0,5.,1.2,0.,1.2,0.,1.2,,0.0,,0.0
1979-07-17 12:04:45.630 ,5,0,4.,1.2,2.,1.2,0.,1.2,,0.0,,0.0
1979-07-17 12:04:46.830 ,6,0,2.,1.2,0.,1.2,0.,1.2,,0.0,,0.0
1979-07-17 12:04:48.030 ,6,0,2.,1.2,0.,1.2,0.,1.2,,0.0,,0.0
1979-07-17 12:04:49.230 ,6,0,1.,1.2,0.,1.2,0.,1.2,,0.0,,0.0
1979-07-17 12:04:50.430 ,6,0,6.,1.2,0.,1.2,0.,1.2,,0.0,,0.0
1979-07-17 12:04:51.630 ,6,0,2.,1.2,0.,1.2,0.,1.2,,0.0,,0.0
1979-07-17 12:04:52.830 ,6,0,1.,1.2,0.,1.2,0.,1.2,,0.0,,0.0
1979-07-17 12:04:54.030 ,6,0,2.,1.2,0.,1.2,0.,1.2,,0.0,,0.0
1979-07-17 12:04:55.230 ,6,0,2.,1.2,0.,1.2,0.,1.2,,0.0,,0.0
1979-07-17 12:04:56.430 ,6,0,2.,1.2,0.,1.2,0.,1.2,,0.0,,0.0
1979-07-17 12:04:57.630 ,6,0,2.,1.2,0.,1.2,0.,1.2,,0.0,,0.0
1979-07-17 12:04:58.830 ,6,0,3.,1.2,0.,1.2,0.,1.2,,0.0,,0.0
1979-07-17 12:05:00.030 ,6,0,4.,1.2,0.,1.2,0.,1.2,,0.0,,0.0
1979-07-17 12:05:01.230 ,6,0,2.,1.2,0.,1.2,0.,1.2,,0.0,,0.0
1979-07-17 12:05:02.430 ,6,0,1.,1.2,0.,1.2,0.,1.2,,0.0,,0.0
1979-07-17 12:05:03.630 ,6,0,4.,1.2,0.,1.2,0.,1.2,,0.0,,0.0
1979-07-17 12:05:04.830 ,6,0,3.,1.2,0.,1.2,0.,1.2,,0.0,,0.0
1979-07-17 12:05:06.030 ,6,0,3.,1.2,1.,1.2,0.,1.2,,0.0,,0.0
1979-07-17 12:05:07.230 ,6,0,2.,1.2,0.,1.2,0.,1.2,,0.0,,0.0
1979-07-17 12:05:08.430 ,6,0,1.,1.2,0.,1.2,0.,1.2,,0.0,,0.0
1979-07-17 12:05:09.630 ,6,0,0.,1.2,0.,1.2,0.,1.2,,0.0,,0.0
1979-07-17 12:05:10.830 ,6,0,2.,1.2,0.,1.2,0.,1.2,,0.0,,0.0
1979-07-17 12:05:12.030 ,6,0,5.,1.2,0.,1.2,0.,1.2,,0.0,,0.0
1979-07-17 12:05:13.230 ,6,0,1.,1.2,1.,1.2,0.,1.2,,0.0,,0.0
1979-07-17 12:05:14.430 ,6,0,4.,1.2,1.,1.2,0.,1.2,,0.0,,0.0
1979-07-17 12:05:15.630 ,6,0,3.,1.2,1.,1.2,1.,1.2,,0.0,,0.0
1979-07-17 12:05:16.830 ,6,0,1.,1.2,0.,1.2,0.,1.2,,0.0,,0.0
1979-07-17 12:05:18.030 ,6,0,5.,1.2,1.,1.2,0.,1.2,,0.0,,0.0
1979-07-17 12:05:19.230 ,6,0,1.,1.2,0.,1.2,0.,1.2,,0.0,,0.0
1979-07-17 12:05:20.430 ,6,0,0.,1.2,0.,1.2,0.,1.2,,0.0,,0.0
1979-07-17 12:05:21.630 ,6,0,1.,1.2,0.,1.2,0.,1.2,,0.0,,0.0
1979-07-17 12:05:22.830 ,6,0,1.,1.2,0.,1.2,0.,1.2,,0.0,,0.0
1979-07-17 12:05:24.030 ,6,0,2.,1.2,0.,1.2,0.,1.2,,0.0,,0.0
1979-07-17 12:05:25.230 ,6,0,6.,1.2,1.,1.2,0.,1.2,,0.0,,0.0
1979-07-17 12:05:26.430 ,6,0,3.,1.2,0.,1.2,0.,1.2,,0.0,,0.0
1979-07-17 12:05:27.630 ,6,0,2.,1.2,0.,1.2,0.,1.2,,0.0,,0.0
1979-07-17 12:05:28.830 ,6,0,2.,1.2,1.,1.2,1.,1.2,,0.0,,0.0
1979-07-17 12:05:30.030 ,6,0,7.,1.2,1.,1.2,0.,1.2,,0.0,,0.0
1979-07-17 12:05:31.230 ,6,0,3.,1.2,0.,1.2,0.,1.2,,0.0,,0.0
1979-07-17 12:05:32.430 ,6,0,1.,1.2,0.,1.2,0.,1.2,,0.0,,0.0
1979-07-17 12:05:33.630 ,6,0,3.,1.2,0.,1.2,0.,1.2,,0.0,,0.0
1979-07-17 12:05:34.830 ,7,0,2.,1.2,1.,1.2,0.,1.2,,0.0,,0.0
1979-07-17 12:05:36.030 ,7,0,3.,1.2,1.,1.2,1.,1.2,,0.0,,0.0
1979-07-17 12:05:37.230 ,7,0,4.,1.2,0.,1.2,0.,1.2,,0.0,,0.0
1979-07-17 12:05:38.430 ,7,0,1.,1.2,0.,1.2,0.,1.2,,0.0,,0.0
1979-07-17 12:05:39.630 ,7,0,4.,1.2,0.,1.2,0.,1.2,,0.0,,0.0
1979-07-17 12:05:40.830 ,7,0,2.,1.2,0.,1.2,0.,1.2,,0.0,,0.0
1979-07-17 12:05:42.030 ,7,0,0.,1.2,0.,1.2,0.,1.2,,0.0,,0.0
1979-07-17 12:05:43.230 ,7,0,1.,1.2,0.,1.2,0.,1.2,,0.0,,0.0
1979-07-17 12:05:44.430 ,7,0,0.,1.2,0.,1.2,0.,1.2,,0.0,,0.0
1979-07-17 12:05:45.630 ,7,0,0.,1.2,0.,1.2,0.,1.2,,0.0,,0.0
1979-07-17 12:05:46.830 ,7,0,1.,1.2,1.,1.2,0.,1.2,,0.0,,0.0
1979-07-17 12:05:48.030 ,7,0,1.,1.2,0.,1.2,0.,1.2,,0.0,,0.0
1979-07-17 12:05:49.230 ,7,0,0.,1.2,0.,1.2,0.,1.2,,0.0,,0.0
1979-07-17 12:05:50.430 ,7,0,1.,1.2,1.,1.2,0.,1.2,,0.0,,0.0
1979-07-17 12:05:51.630 ,7,0,2.,1.2,0.,1.2,0.,1.2,,0.0,,0.0
1979-07-17 12:05:52.830 ,7,0,0.,1.2,0.,1.2,0.,1.2,,0.0,,0.0
1979-07-17 12:05:54.030 ,7,0,2.,1.2,0.,1.2,0.,1.2,,0.0,,0.0
1979-07-17 12:05:55.230 ,7,0,0.,1.2,0.,1.2,0.,1.2,,0.0,,0.0
1979-07-17 12:05:56.430 ,7,0,0.,1.2,0.,1.2,0.,1.2,,0.0,,0.0
1979-07-17 12:05:57.630 ,7,0,0.,1.2,0.,1.2,0.,1.2,,0.0,,0.0
1979-07-17 12:05:58.830 ,7,0,0.,1.2,0.,1.2,0.,1.2,,0.0,,0.0
1979-07-17 12:06:00.030 ,7,0,0.,1.2,0.,1.2,0.,1.2,,0.0,,0.0
1979-07-17 12:06:01.230 ,7,0,0.,1.2,0.,1.2,0.,1.2,,0.0,,0.0
1979-07-17 12:06:02.430 ,7,0,0.,1.2,0.,1.2,0.,1.2,,0.0,,0.0
1979-07-17 12:06:03.630 ,7,0,1.,1.2,0.,1.2,0.,1.2,,0.0,,0.0
1979-07-17 12:06:04.830 ,7,0,1.,1.2,0.,1.2,0.,1.2,,0.0,,0.0
1979-07-17 12:06:06.030 ,7,0,0.,1.2,0.,1.2,0.,1.2,,0.0,,0.0
1979-07-17 12:06:07.230 ,7,0,0.,1.2,0.,1.2,0.,1.2,,0.0,,0.0
1979-07-17 12:06:08.430 ,7,0,0.,1.2,0.,1.2,0.,1.2,,0.0,,0.0
1979-07-17 12:06:09.630 ,7,0,0.,1.2,0.,1.2,0.,1.2,,0.0,,0.0
1979-07-17 12:06:10.830 ,7,0,2.,1.2,0.,1.2,0.,1.2,,0.0,,0.0
1979-07-17 12:06:12.030 ,7,0,0.,1.2,0.,1.2,0.,1.2,,0.0,,0.0
1979-07-17 12:06:13.230 ,7,0,2.,1.2,0.,1.2,0.,1.2,,0.0,,0.0
1979-07-17 12:06:14.430 ,7,0,0.,1.2,0.,1.2,0.,1.2,,0.0,,0.0
1979-07-17 12:06:15.630 ,7,0,1.,1.2,0.,1.2,0.,1.2,,0.0,,0.0
1979-07-17 12:06:16.830 ,7,0,0.,1.2,0.,1.2,0.,1.2,,0.0,,0.0
1979-07-17 12:06:18.030 ,7,0,0.,1.2,0.,1.2,0.,1.2,,0.0,,0.0
1979-07-17 12:06:19.230 ,7,0,0.,1.2,0.,1.2,0.,1.2,,0.0,,0.0
1979-07-17 12:06:20.430 ,7,0,1.,1.2,0.,1.2,0.,1.2,,0.0,,0.0
1979-07-17 12:06:21.630 ,7,0,1.,1.2,0.,1.2,0.,1.2,,0.0,,0.0
1979-07-17 12:06:22.830 ,7,0,0.,1.2,0.,1.2,0.,1.2,,0.0,,0.0
1979-07-17 12:06:24.030 ,7,0,0.,1.2,0.,1.2,0.,1.2,,0.0,,0.0
1979-07-17 12:06:25.230 ,7,0,2.,1.2,1.,1.2,0.,1.2,,0.0,,0.0
1979-07-17 12:06:26.430 ,7,0,1.,1.2,0.,1.2,0.,1.2,,0.0,,0.0
1979-07-17 12:06:27.630 ,7,0,0.,1.2,0.,1.2,0.,1.2,,0.0,,0.0
1979-07-17 12:06:28.830 ,7,0,1.,1.2,0.,1.2,0.,1.2,,0.0,,0.0
1979-07-17 12:06:30.030 ,7,0,0.,1.2,0.,1.2,0.,1.2,,0.0,,0.0
1979-07-17 12:06:31.230 ,7,0,0.,1.2,0.,1.2,0.,1.2,,0.0,,0.0
1979-07-17 12:06:32.430 ,7,0,0.,1.2,0.,1.2,0.,1.2,,0.0,,0.0
1979-07-17 12:06:33.630 ,7,0,0.,1.2,0.,1.2,0.,1.2,,0.0,,0.0
1979-07-17 12:06:34.830 ,7,0,1.,1.2,0.,1.2,0.,1.2,,0.0,,0.0
1979-07-17 12:06:36.030 ,7,0,1.,1.2,0.,1.2,0.,1.2,,0.0,,0.0
1979-07-17 12:06:37.230 ,7,0,0.,1.2,0.,1.2,0.,1.2,,0.0,,0.0
1979-07-17 12:06:38.430 ,7,0,0.,1.2,0.,1.2,0.,1.2,,0.0,,0.0
1979-07-17 12:06:39.630 ,7,0,2.,1.2,0.,1.2,0.,1.2,,0.0,,0.0
1979-07-17 12:06:40.830 ,7,0,0.,1.2,0.,1.2,0.,1.2,,0.0,,0.0
1979-07-17 12:06:42.030 ,7,0,0.,1.2,0.,1.2,0.,1.2,,0.0,,0.0
1979-07-17 12:06:43.230 ,7,0,0.,1.2,0.,1.2,0.,1.2,,0.0,,0.0
1979-07-17 12:06:44.430 ,7,0,0.,1.2,0.,1.2,0.,1.2,,0.0,,0.0
1979-07-17 12:06:45.630 ,7,0,1.,1.2,0.,1.2,0.,1.2,,0.0,,0.0
1979-07-17 12:06:46.830 ,7,0,0.,1.2,0.,1.2,0.,1.2,,0.0,,0.0
1979-07-17 12:06:48.030 ,7,0,0.,1.2,0.,1.2,0.,1.2,,0.0,,0.0
1979-07-17 12:06:49.230 ,7,0,0.,1.2,0.,1.2,0.,1.2,,0.0,,0.0
1979-07-17 12:06:50.430 ,7,0,2.,1.2,1.,1.2,0.,1.2,,0.0,,0.0
1979-07-17 12:06:51.630 ,7,0,1.,1.2,0.,1.2,0.,1.2,,0.0,,0.0
1979-07-17 12:06:52.830 ,7,0,0.,1.2,0.,1.2,0.,1.2,,0.0,,0.0
1979-07-17 12:06:54.030 ,7,0,0.,1.2,0.,1.2,0.,1.2,,0.0,,0.0
1979-07-17 12:06:55.230 ,7,0,0.,1.2,0.,1.2,0.,1.2,,0.0,,0.0
1979-07-17 12:06:56.430 ,7,0,0.,1.2,0.,1.2,0.,1.2,,0.0,,0.0
1979-07-17 12:06:57.630 ,7,0,1.,1.2,0.,1.2,0.,1.2,,0.0,,0.0
1979-07-17 12:06:58.830 ,7,0,0.,1.2,0.,1.2,0.,1.2,,0.0,,0.0
1979-07-17 12:07:00.030 ,7,0,0.,1.2,0.,1.2,0.,1.2,,0.0,,0.0
1979-07-17 12:07:01.230 ,7,0,0.,1.2,0.,1.2,0.,1.2,,0.0,,0.0
1979-07-17 12:07:02.430 ,7,0,2.,1.2,1.,1.2,1.,1.2,,0.0,,0.0
1979-07-17 12:07:03.630 ,7,0,2.,1.2,0.,1.2,0.,1.2,,0.0,,0.0
1979-07-17 12:07:04.830 ,7,0,0.,1.2,0.,1.2,0.,1.2,,0.0,,0.0
1979-07-17 12:07:06.030 ,7,0,0.,1.2,0.,1.2,0.,1.2,,0.0,,0.0
1979-07-17 12:07:07.230 ,7,0,0.,1.2,0.,1.2,0.,1.2,,0.0,,0.0
1979-07-17 12:07:08.430 ,7,0,0.,1.2,0.,1.2,0.,1.2,,0.0,,0.0
1979-07-17 12:07:09.630 ,7,0,0.,1.2,0.,1.2,0.,1.2,,0.0,,0.0
1979-07-17 12:07:10.830 ,6,0,1.,1.2,0.,1.2,0.,1.2,,0.0,,0.0
1979-07-17 12:07:12.030 ,6,0,0.,1.2,0.,1.2,0.,1.2,,0.0,,0.0
1979-07-17 12:07:13.230 ,6,0,2.,1.2,1.,1.2,0.,1.2,,0.0,,0.0
1979-07-17 12:07:14.430 ,6,0,1.,1.2,0.,1.2,0.,1.2,,0.0,,0.0
1979-07-17 12:07:15.630 ,6,0,0.,1.2,0.,1.2,0.,1.2,,0.0,,0.0
1979-07-17 12:07:16.830 ,6,0,1.,1.2,0.,1.2,0.,1.2,,0.0,,0.0
1979-07-17 12:07:18.030 ,6,0,2.,1.2,0.,1.2,0.,1.2,,0.0,,0.0
1979-07-17 12:07:19.230 ,6,0,2.,1.2,0.,1.2,0.,1.2,,0.0,,0.0
1979-07-17 12:07:20.430 ,6,0,3.,1.2,0.,1.2,0.,1.2,,0.0,,0.0
1979-07-17 12:07:21.630 ,6,0,0.,1.2,0.,1.2,0.,1.2,,0.0,,0.0
1979-07-17 12:07:22.830 ,6,0,2.,1.2,0.,1.2,0.,1.2,,0.0,,0.0
1979-07-17 12:07:24.030 ,6,0,1.,1.2,0.,1.2,0.,1.2,,0.0,,0.0
1979-07-17 12:07:25.230 ,6,0,3.,1.2,0.,1.2,0.,1.2,,0.0,,0.0
1979-07-17 12:07:26.430 ,6,0,1.,1.2,0.,1.2,0.,1.2,,0.0,,0.0
1979-07-17 12:07:27.630 ,6,0,2.,1.2,0.,1.2,0.,1.2,,0.0,,0.0
1979-07-17 12:07:28.830 ,6,0,4.,1.2,0.,1.2,0.,1.2,,0.0,,0.0
1979-07-17 12:07:30.030 ,6,0,1.,1.2,0.,1.2,0.,1.2,,0.0,,0.0
1979-07-17 12:07:31.230 ,6,0,2.,1.2,1.,1.2,1.,1.2,,0.0,,0.0
1979-07-17 12:07:32.430 ,6,0,1.,1.2,0.,1.2,0.,1.2,,0.0,,0.0
1979-07-17 12:07:33.630 ,6,0,2.,1.2,0.,1.2,0.,1.2,,0.0,,0.0
1979-07-17 12:07:34.830 ,6,0,4.,1.2,0.,1.2,0.,1.2,,0.0,,0.0
1979-07-17 12:07:36.030 ,6,0,8.,1.2,1.,1.2,1.,1.2,,0.0,,0.0
1979-07-17 12:07:37.230 ,6,0,2.,1.2,0.,1.2,0.,1.2,,0.0,,0.0
1979-07-17 12:07:38.430 ,6,0,2.,1.2,0.,1.2,0.,1.2,,0.0,,0.0
1979-07-17 12:07:39.630 ,6,0,6.,1.2,2.,1.2,0.,1.2,,0.0,,0.0
1979-07-17 12:07:40.830 ,6,0,1.,1.2,0.,1.2,0.,1.2,,0.0,,0.0
1979-07-17 12:07:42.030 ,6,0,4.,1.2,1.,1.2,0.,1.2,,0.0,,0.0
1979-07-17 12:07:43.230 ,6,0,4.,1.2,0.,1.2,0.,1.2,,0.0,,0.0
1979-07-17 12:07:44.430 ,6,0,5.,1.2,0.,1.2,0.,1.2,,0.0,,0.0
1979-07-17 12:07:45.630 ,6,0,0.,1.2,0.,1.2,0.,1.2,,0.0,,0.0
1979-07-17 12:07:46.830 ,6,0,1.,1.2,0.,1.2,0.,1.2,,0.0,,0.0
1979-07-17 12:07:48.030 ,6,0,3.,1.2,0.,1.2,0.,1.2,,0.0,,0.0
1979-07-17 12:07:49.230 ,6,0,3.,1.2,0.,1.2,0.,1.2,,0.0,,0.0
1979-07-17 12:07:50.430 ,6,0,4.,1.2,1.,1.2,0.,1.2,,0.0,,0.0
1979-07-17 12:07:51.630 ,6,0,3.,1.2,2.,1.2,0.,1.2,,0.0,,0.0
1979-07-17 12:07:52.830 ,6,0,1.,1.2,0.,1.2,0.,1.2,,0.0,,0.0
1979-07-17 12:07:54.030 ,6,0,2.,1.2,1.,1.2,0.,1.2,,0.0,,0.0
1979-07-17 12:07:55.230 ,6,0,3.,1.2,0.,1.2,0.,1.2,,0.0,,0.0
1979-07-17 12:07:56.430 ,6,0,2.,1.2,0.,1.2,0.,1.2,,0.0,,0.0
1979-07-17 12:07:57.630 ,6,0,3.,1.2,0.,1.2,0.,1.2,,0.0,,0.0
1979-07-17 12:07:58.830 ,5,0,1.,1.2,0.,1.2,0.,1.2,,0.0,,0.0
1979-07-17 12:08:00.030 ,5,0,3.,1.2,1.,1.2,0.,1.2,,0.0,,0.0
1979-07-17 12:08:01.230 ,5,0,3.,1.2,1.,1.2,0.,1.2,,0.0,,0.0
1979-07-17 12:08:02.430 ,5,0,3.,1.2,0.,1.2,0.,1.2,,0.0,,0.0
1979-07-17 12:08:03.630 ,5,0,3.,1.2,0.,1.2,0.,1.2,,0.0,,0.0
1979-07-17 12:08:04.830 ,5,0,4.,1.2,0.,1.2,0.,1.2,,0.0,,0.0
1979-07-17 12:08:06.030 ,5,0,3.,1.2,0.,1.2,0.,1.2,,0.0,,0.0
1979-07-17 12:08:07.230 ,5,0,2.,1.2,0.,1.2,0.,1.2,,0.0,,0.0
1979-07-17 12:08:08.430 ,5,0,4.,1.2,0.,1.2,0.,1.2,,0.0,,0.0
1979-07-17 12:08:09.630 ,5,0,0.,1.2,0.,1.2,0.,1.2,,0.0,,0.0
1979-07-17 12:08:10.830 ,5,0,5.,1.2,0.,1.2,0.,1.2,,0.0,,0.0
1979-07-17 12:08:12.030 ,5,0,2.,1.2,0.,1.2,0.,1.2,,0.0,,0.0